Regional Weather Roundup
Issued by NWS Kansas City/Pleasant Hill, MO

Home | Current Version | Previous Version | Text Only | Print | Product List | Glossary On
Versions: 1 2 3 4 5 6 7 8 9 10 11 12 13 14 15 16 17 18 19 20 21 22 23 24 25 26 27 28 29 30 31 32 33 34 35 36 37 38 39 40 41 42 43 44 45 46 47 48 49 50
000
ASUS43 KEAX 281410
RWREAX

WEATHER ROUNDUP FOR EASTERN KANSAS AND NORTHWEST MISSOURI
NATIONAL WEATHER SERVICE KANSAS CITY/PLEASANT HILL MO
900 AM CDT SUN AUG 28 2016

KSZ040-057-103>105-MOZ028-029-037-043-281500-
...KANSAS CITY METROPOLITAN AREA...

CITY           SKY/WX    TMP DP  RH WIND       PRES   REMARKS
K.C. INTL      MOSUNNY   78  71  79 S6        30.13R
K.C. DOWNTOWN  SUNNY     80  72  76 SW3       30.11R
LEES SUMMIT    CLOUDY    78  71  79 S6        30.14R
OLATHE - IXD   MOSUNNY   77  72  84 S6        30.14R
OLATHE - OJC   SUNNY     76  71  85 S6        30.14R
LAWRENCE       SUNNY     76  73  91 E3        30.12R

$$

MOZ001>008-011>017-020>025-030>033-038>040-044>046-053-054-281500-
...NORTHERN AND CENTRAL MISSOURI...

CITY           SKY/WX    TMP DP  RH WIND       PRES   REMARKS
ST. JOSEPH     MOSUNNY   77  72  84 S3        30.12R
MOSBY          SUNNY     75  72  88 CALM      30.12S
WHITEMAN AFB   MOSUNNY   76  76 100 S7        30.14R
CLINTON        CLOUDY    77  73  88 S7        30.15R FOG
SEDALIA        SUNNY     78  73  84 S5        30.16R
WARSAW         NOT AVBL
CHILLICOTHE    NOT AVBL
KIRKSVILLE     SUNNY     77  73  87 S6        30.17R

$$

MOZ041-047>049-056>058-063>065-088>090-097-281500-
...EASTERN AND SOUTHERN MISSOURI...

CITY           SKY/WX    TMP DP  RH WIND       PRES   REMARKS
ST. LOUIS INTL MOSUNNY   85  71  63 CALM      30.17R HX  90
SPIRIT OF STL  SUNNY     79  74  84 CALM      30.15R
COLUMBIA       CLOUDY    78  74  87 SW3       30.17R
JEFFERSON CITY SUNNY     77  73  87 SE5       30.16R
ROLLA          SUNNY     78  72  81 S6        30.17R
OSAGE BEACH    SUNNY     76  72  87 S3        30.17R
SPRINGFIELD    SUNNY     79  71  76 S6        30.16R
BRANSON        MOSUNNY   77  73  88 CALM      30.18R
JOPLIN         CLOUDY    78  72  81 S10       30.15R
WEST PLAINS    SUNNY     79  71  76 CALM      30.20R

$$

IAZ060-094-KSZ022-034>040-054-083-096-NEZ052-066-093-281500-
...KANSAS...SOUTHEAST NEBRASKA AND IOWA...

CITY           SKY/WX    TMP DP  RH WIND       PRES   REMARKS
TOPEKA         SUNNY     77  72  84 S5        30.11R
MANHATTAN      SUNNY     77  70  79 CALM      30.09S
EMPORIA        SUNNY     75  71  87 S10       30.11S
CHANUTE        MOSUNNY   77  72  84 S7        30.13R
WICHITA        MOSUNNY   78  70  76 S8        30.10R
OMAHA          PTSUNNY   74  68  81 SE5       30.10R
LINCOLN        MOSUNNY   74  69  85 S5        30.10R
FALLS CITY     SUNNY     75  71  87 SE7       30.10R
LAMONI         SUNNY     75  72  90 SE6       30.14R
DES MOINES     MOSUNNY   75  69  81 SE6       30.14R

$$




USA.gov is the U.S. government's official web portal to all federal, state and local government web resources and services.